Volver al catálogo

COSMOS 1225

ActivoNavegaciónPO
NORAD 12087·PAYLOAD·🇷🇺 Russia

Lanzado Dec 5, 1980 desde Plesetsk Cosmodrome

Loading…

Próximos Pases (próximas 24 horas)

TLE

ActualizadoSource: Space-Track

Época: Sep 14, 2026, 09:16 UTC

1 12087U 80097A   26257.38663534  .00000030  00000-0  15163-4 0  9995
2 12087  82.9449  49.3846 0056491 164.1160 224.0711 13.74762122295697

Sigue COSMOS 1225 en tiempo real con AllMySat

Download on the App Store